Terminal Aerodrome Forecast
Issued by NWS La Crosse, WI

Home | Current Version | Previous Version | Text Only | Print | Product List | Glossary On
Versions: 1 2 3 4 5 6 7 8 9 10 11 12 13 14 15 16 17 18 19 20 21 22 23 24 25 26 27 28 29 30 31 32 33 34 35 36 37 38 39 40 41 42 43 44 45 46 47 48 49 50
000
FTUS43 KARX 011520 AAA
TAFRST
TAF AMD
KRST 011520Z 0115/0212 18007KT 6SM HZ SCT250
     FM011800 20008KT P6SM SCT040 SCT100
     FM020000 20005KT P6SM SCT100 BKN250
     FM020500 20005KT 5SM BR SCT100 BKN250=

USA.gov is the U.S. government's official web portal to all federal, state and local government web resources and services.